Theta_e
299 299 300 300 300 300 300 300 300 301 301 302 302 302 302 303 305 307 306 306 308 312 313 312 311 310 311 313 317 319 319 326 328 328 327 327 325 326 325 325 324 326 326 327 337
301 299 300 300 300 300 300 300 300 300 301 301 302 302 302 305 311 316 313 311 307 306 305 308 307 311 310 312 314 313 317 321 323 326 325 324 323 323 324 323 323 324 325 327 340
307 305 304 301 300 300 300 300 300 300 301 301 302 302 303 306 316 311 309 310 312 312 306 306 311 311 311 311 313 312 316 319 320 320 321 321 321 321 320 321 322 322 323 325 327
306 307 307 306 303 300 300 300 300 300 300 301 302 302 304 309 316 311 312 312 312 312 312 313 312 311 308 310 312 311 313 314 315 315 317 318 318 319 319 320 320 322 323 323 325
301 302 305 307 307 305 300 301 301 301 301 301 302 302 304 311 317 311 311 311 312 312 312 312 311 310 308 308 310 310 311 311 312 312 313 314 317 319 319 319 320 321 322 323 324
305 300 301 304 307 307 302 301 301 301 301 302 303 302 305 308 311 311 311 310 310 309 312 311 311 311 310 310 309 310 310 310 311 311 312 313 314 315 316 317 317 318 319 320 323
309 308 301 304 307 307 302 301 301 301 302 306 307 303 304 305 311 311 310 309 309 310 310 310 310 311 310 309 310 310 309 308 310 311 312 314 313 314 316 316 317 317 318 318 322
309 309 305 304 307 305 303 302 302 302 303 308 305 304 305 312 311 310 310 309 309 310 309 310 310 310 311 311 310 308 306 306 308 309 311 313 313 314 316 314 316 316 317 317 318
309 309 308 304 306 303 302 304 308 310 307 310 306 313 313 313 312 310 310 310 310 310 310 310 310 310 310 307 307 306 308 308 308 308 309 311 311 311 313 313 313 314 314 314 314
309 309 309 305 305 303 311 310 313 313 312 315 309 313 314 314 313 310 310 310 310 310 310 310 309 307 304 306 309 309 309 309 309 309 310 309 310 311 312 312 312 313 313 313 314
309 309 309 305 306 308 311 312 310 312 310 310 311 313 314 313 311 310 310 310 310 309 307 307 305 307 308 307 309 309 310 309 308 309 309 308 310 310 310 311 311 312 313 313 313
309 309 309 306 310 311 312 312 311 310 309 310 310 310 310 311 311 310 310 310 309 307 307 305 306 307 308 308 308 308 307 309 309 312 311 311 311 311 309 309 311 312 312 313 313
308 310 309 305 311 312 311 310 311 311 309 308 311 311 311 311 311 311 310 310 308 307 307 306 307 308 309 308 311 310 311 312 312 311 311 310 310 310 310 310 311 312 312 312 312
309 310 309 304 311 311 312 311 311 311 309 314 311 311 311 310 310 311 310 310 308 307 307 307 307 309 308 308 311 310 312 312 311 311 310 311 310 310 310 310 309 310 311 312 312
310 310 308 307 312 313 312 312 311 312 314 315 311 310 310 309 310 311 311 310 308 308 307 308 309 308 308 310 311 309 312 310 311 310 310 310 310 309 308 309 309 309 311 313 314
310 310 305 310 313 312 311 311 312 313 315 311 310 310 310 309 309 310 310 310 309 308 307 307 308 309 309 311 310 311 309 307 308 308 310 309 309 310 308 307 308 312 313 313 313
307 310 306 311 313 310 309 313 311 312 311 310 309 309 310 310 311 311 310 309 308 307 307 307 307 310 311 310 308 308 306 306 308 309 311 309 311 310 310 311 313 313 312 312 312
309 306 306 309 312 311 311 310 315 311 309 309 309 309 311 311 311 312 310 308 310 308 306 306 308 308 311 309 308 308 307 305 308 309 308 309 311 310 313 313 313 312 312 312 311
312 314 314 313 312 311 311 311 312 312 310 309 309 310 311 311 310 310 310 311 311 309 310 309 310 310 310 309 309 309 310 307 305 309 311 310 310 309 312 312 311 311 311 311 311
315 314 313 312 311 312 308 313 313 311 310 310 309 310 310 311 310 309 309 312 311 310 308 309 310 309 310 310 309 307 307 308 306 313 313 311 311 311 309 310 312 311 310 311 311
312 313 312 309 310 313 309 312 311 310 310 310 309 309 310 311 310 309 309 310 311 311 310 310 308 310 310 310 308 307 308 310 309 311 312 312 310 308 310 311 311 310 311 311 311
311 309 313 310 309 305 308 309 310 309 311 310 308 311 310 310 310 310 309 310 310 311 312 310 308 311 311 310 309 308 309 310 311 311 312 313 312 310 309 308 309 310 311 312 313
310 312 312 312 301 303 305 309 309 309 310 310 310 308 307 308 309 309 310 310 309 309 311 309 308 312 309 308 308 310 311 311 311 311 313 311 310 309 308 309 309 310 311 311 312
308 305 308 308 306 305 305 307 309 309 310 308 309 308 308 308 308 308 308 309 307 308 312 310 307 309 311 309 309 311 311 312 312 313 311 311 310 310 310 309 309 311 311 311 312
304 302 302 299 302 302 304 307 307 308 308 307 307 308 308 307 307 307 307 306 307 308 309 308 311 311 311 311 311 312 312 312 313 311 313 311 311 310 309 308 311 312 312 312 316
304 303 303 303 303 303 303 305 307 306 306 306 307 306 306 305 306 307 305 305 306 307 309 309 311 310 311 310 310 312 312 312 312 312 312 312 311 310 310 310 309 309 309 310 317
301 303 304 301 301 302 302 303 304 304 306 306 305 304 305 305 306 306 306 306 305 306 307 305 308 313 312 312 311 313 313 314 313 313 313 314 311 310 309 309 308 308 308 310 312
Wind_Speed
17 16 15 14 14 13 13 11 11 10 11 12 13 15 17 18 16 15 12 5 3 4 6 6 9 8 8 7 10 5 3 7 9 6 4 16 8 10 16 13 20 12 22 36 9
18 16 16 16 15 13 13 12 12 11 11 13 14 15 17 17 12 5 4 3 1 4 7 6 5 4 7 6 7 5 4 6 2 3 7 25 7 19 13 27 24 24 28 23 6
20 19 18 16 15 14 13 13 12 12 12 13 13 15 15 13 4 3 7 9 10 8 3 1 4 2 4 5 5 4 6 3 3 6 8 12 24 19 15 22 16 21 27 22 17
21 21 21 19 17 15 14 13 12 12 12 12 12 14 12 6 1 2 8 7 6 5 5 3 2 2 2 3 5 4 5 4 4 13 13 13 24 21 24 35 29 22 23 25 19
21 21 21 20 20 19 16 14 12 10 10 10 12 11 8 4 4 5 5 2 4 5 5 4 7 2 1 3 5 4 3 8 10 11 12 18 19 18 38 43 31 26 23 22 18
25 23 21 20 20 21 18 14 12 10 9 10 10 8 6 3 6 4 1 4 5 7 4 2 2 4 1 2 1 5 5 9 4 9 10 9 13 12 38 22 27 26 22 18 15
27 26 24 21 20 21 17 13 10 8 7 8 9 7 8 8 7 5 1 2 4 4 1 3 5 3 3 5 4 6 5 6 4 9 8 12 13 22 36 22 27 30 30 22 15
27 27 25 22 21 20 14 9 8 6 5 6 6 7 7 6 9 4 3 4 2 6 7 4 5 6 2 5 6 4 4 3 5 6 7 8 23 5 12 15 22 22 25 19 16
28 27 26 21 20 17 10 7 6 4 4 3 3 3 4 7 6 5 5 3 6 6 7 8 7 3 1 3 4 5 1 2 7 5 4 6 6 4 20 11 18 22 19 22 20
28 25 25 20 18 11 8 8 6 5 4 0 3 4 1 1 4 8 6 2 5 7 6 4 2 2 4 4 3 5 2 2 5 6 2 11 17 6 13 13 14 18 24 28 29
27 23 22 17 12 7 10 3 7 1 13 10 10 10 15 2 4 6 4 5 4 2 3 3 4 3 6 7 7 4 4 4 5 5 6 7 17 12 10 13 12 18 21 23 24
25 21 17 11 6 7 9 9 9 8 9 16 18 18 18 15 6 9 10 5 2 1 1 5 2 5 4 3 3 1 1 3 4 6 9 13 22 15 5 7 13 17 19 23 30
23 18 13 4 2 3 9 11 7 9 3 10 3 6 3 9 8 12 7 7 3 2 2 4 6 4 2 4 3 2 2 3 5 6 5 8 20 8 3 7 18 18 21 20 24
20 15 10 2 4 4 6 7 9 7 3 4 2 2 4 3 4 11 15 9 2 7 3 4 4 2 4 1 3 3 1 3 6 6 4 4 14 18 13 10 6 13 18 26 24
18 12 5 3 2 3 8 9 5 3 4 2 1 1 4 5 4 3 13 14 8 7 5 9 3 5 1 3 3 5 2 3 3 5 3 3 4 19 5 13 14 11 15 13 16
13 9 1 5 3 6 12 5 0 4 3 3 3 3 3 5 6 8 7 17 5 2 3 7 3 5 4 3 1 1 3 5 4 1 3 7 6 16 3 5 8 5 13 15 18
11 8 4 6 3 10 7 1 4 4 7 4 3 6 5 4 6 4 5 3 1 1 1 1 0 1 2 1 4 5 6 4 4 2 5 4 4 10 16 16 4 5 15 17 20
13 11 9 5 7 12 4 4 6 4 2 2 3 9 3 8 3 7 5 2 7 4 1 2 5 3 0 4 4 4 7 4 5 3 11 6 7 6 5 9 8 12 18 22 26
7 9 8 7 11 11 3 5 4 3 5 4 7 2 3 3 3 6 3 1 2 4 2 2 4 5 6 2 3 2 4 5 3 2 1 5 7 8 8 8 7 13 12 22 27
4 5 12 11 12 9 4 1 2 5 4 1 2 1 2 3 2 5 2 1 2 1 3 4 4 5 2 2 5 6 4 2 2 4 5 5 6 9 8 10 9 11 14 27 31
6 2 10 11 10 4 3 3 4 8 10 3 4 3 2 2 1 2 5 0 1 2 2 2 4 5 2 5 5 2 2 2 2 3 4 6 7 7 10 9 10 13 22 27 35
4 2 6 10 5 2 1 3 6 7 8 4 2 3 4 2 2 3 5 3 9 1 1 2 3 4 7 15 7 6 6 5 4 4 5 3 12 8 12 10 7 19 26 31 31
8 4 4 6 2 3 6 4 3 3 2 4 4 2 5 2 2 5 4 1 10 1 2 4 1 4 6 3 4 3 3 5 4 4 10 5 11 2 6 15 25 22 33 33 28
7 4 4 5 4 2 4 4 5 9 1 1 3 2 4 2 0 4 3 4 15 5 2 4 4 6 9 11 8 18 19 17 11 5 8 13 21 19 19 16 15 23 28 30 27
8 2 3 4 2 4 3 3 4 5 6 7 2 1 3 3 3 6 4 4 7 13 1 7 5 7 13 17 19 22 23 20 18 17 13 16 21 19 18 10 10 21 25 24 23
5 6 6 6 9 5 2 0 3 2 3 5 2 8 5 6 7 14 13 4 6 3 4 1 3 6 17 16 13 15 17 17 17 18 18 20 20 12 7 15 16 21 27 26 16
6 5 3 4 4 3 2 3 5 9 7 3 3 3 7 9 12 22 22 19 11 7 5 4 2 3 5 5 11 7 4 2 2 4 4 7 13 8 14 14 18 28 33 25 17
Wind_Direction
357 353 351 346 338 332 327 325 323 319 316 315 317 324 325 321 318 305 294 280 226 240 261 254 240 238 220 218 198 189 195 225 230 253 302 303 354 300 319 305 321 332 350 340 282
355 353 349 345 338 330 324 319 317 316 313 314 319 326 327 328 330 357 63 36 350 286 270 255 221 189 187 210 210 178 196 217 278 254 314 302 302 304 329 318 305 320 333 354 277
350 347 345 342 336 328 320 314 312 311 311 311 318 326 326 328 336 39 71 89 74 51 54 217 173 173 190 209 212 210 235 143 260 296 316 300 299 310 310 292 288 312 318 324 324
344 342 340 337 334 326 317 309 306 308 309 308 317 324 326 330 200 53 103 82 58 29 34 39 49 154 186 206 228 251 227 223 259 277 283 273 292 287 284 270 291 298 302 305 305
345 340 334 332 331 327 315 308 303 305 306 308 318 323 330 301 255 97 130 60 23 347 354 13 57 69 240 304 337 194 320 329 318 308 289 280 267 272 278 277 293 297 296 289 273
353 345 335 329 328 327 315 304 304 304 304 311 317 313 305 283 154 136 95 326 338 326 284 344 357 342 149 305 130 321 293 295 299 286 262 257 270 264 265 282 298 300 302 297 276
350 347 341 333 328 326 318 306 302 293 301 316 320 297 281 245 189 218 187 333 341 15 321 295 315 301 315 311 321 288 327 346 253 226 216 242 258 241 268 289 286 290 292 297 285
344 343 341 335 331 328 325 311 295 288 289 298 292 292 261 159 198 214 217 299 295 323 296 278 274 288 243 305 334 352 55 38 278 321 268 200 258 320 302 332 297 301 302 306 297
341 339 339 336 333 333 341 328 303 287 253 268 260 264 264 209 218 181 220 288 323 314 301 286 287 237 119 68 357 11 330 310 307 274 278 195 304 354 322 330 315 316 322 323 328
339 337 337 337 338 355 12 36 36 106 93 263 232 299 250 15 237 211 255 254 342 341 1 31 118 104 35 71 272 291 322 261 256 297 307 297 289 298 299 297 295 306 316 325 323
339 337 337 340 351 40 54 13 16 23 314 265 270 271 276 306 340 236 207 241 283 4 18 7 73 206 247 214 239 272 286 292 274 328 342 289 302 309 289 292 289 300 312 317 317
337 336 339 344 24 53 61 49 32 341 303 295 265 257 260 271 292 271 266 214 194 293 21 14 285 214 253 274 209 269 319 321 295 336 339 315 298 302 270 268 287 293 301 313 315
336 333 338 349 52 20 75 42 12 342 313 299 276 237 234 215 231 256 216 206 182 216 195 164 251 313 296 4 38 353 135 301 292 321 276 318 295 299 310 317 306 288 292 305 313
339 333 337 119 136 88 30 356 348 354 57 277 231 263 185 207 251 251 228 220 181 212 216 226 266 259 329 285 123 337 0 316 323 354 302 88 292 289 290 278 258 283 302 307 312
340 335 332 139 149 33 333 322 319 313 55 182 96 11 334 209 312 244 225 211 211 204 122 242 208 306 267 192 168 227 237 275 272 266 275 194 249 283 14 283 272 264 274 310 319
348 348 347 143 111 341 323 324 20 48 33 27 28 12 305 267 265 268 220 211 235 203 246 253 238 145 210 188 228 5 9 339 30 20 308 227 201 290 292 278 313 347 325 315 323
13 25 75 125 12 337 325 276 43 74 315 25 336 328 25 329 358 328 204 59 311 238 290 313 217 129 107 34 352 74 54 330 338 1 238 296 321 258 284 307 216 280 301 314 319
54 68 89 85 349 344 345 60 66 342 24 277 298 313 82 7 28 341 10 123 23 46 79 149 325 173 200 207 214 241 155 164 250 236 282 296 247 252 203 246 264 277 301 316 323
49 63 53 22 3 358 332 58 166 336 295 326 320 320 15 18 336 6 45 26 75 50 90 69 278 315 315 129 106 247 185 195 193 236 282 232 281 293 218 267 271 259 291 304 314
341 355 13 6 351 342 69 215 272 331 314 69 131 332 302 340 39 13 319 18 110 135 149 195 272 254 273 352 278 178 179 282 356 278 246 253 253 246 268 267 282 288 287 304 310
344 13 5 1 341 18 104 257 299 327 1 245 213 252 230 243 245 211 267 151 135 193 67 151 160 278 284 211 211 328 306 123 196 207 240 282 254 218 242 244 255 272 282 297 306
27 37 340 355 29 26 53 282 316 322 348 344 340 208 219 221 248 255 240 217 11 43 138 180 164 256 252 281 274 202 219 168 194 251 236 234 262 241 264 285 280 273 278 290 296
345 308 350 346 86 328 316 298 275 303 348 357 353 43 5 264 280 223 246 315 69 354 215 183 346 320 316 12 6 225 221 199 230 212 234 237 266 296 313 305 297 289 284 274 292
350 357 340 60 77 58 340 284 328 327 143 330 274 57 24 319 103 290 296 294 345 5 320 151 178 192 256 264 280 285 276 264 244 241 260 234 275 271 285 288 304 305 318 275 306
11 30 6 312 343 333 267 281 299 356 327 328 335 197 190 265 287 253 259 311 310 298 346 139 225 233 259 269 275 276 277 272 261 253 248 267 264 283 284 291 316 340 341 328 327
31 0 341 298 311 317 349 311 294 345 273 274 305 325 255 220 219 281 275 215 226 279 130 177 264 314 290 276 263 268 265 258 256 262 264 262 268 269 322 323 335 331 317 311 329
20 344 320 293 326 346 257 10 306 317 288 213 304 295 249 254 290 284 267 248 225 192 163 181 266 259 258 326 314 278 255 273 320 263 297 283 277 337 323 327 328 318 305 305 321